KD7MPG-3 Weather Reports


time (UTC)temp
C
wind
direction
speed
KPH
gust
KPH
rain 1hr
cm
rain 24hr
cm
rain mn
cm
humidity
%
barometer
mb
20260503010717 21 105 1.6 4.8 0.00 0.00 0.00 71 1020.7
20260503010216 21 113 1.6 6.4 0.00 0.00 0.00 70 1020.8
20260503005716 21 97 3.2 6.4 0.00 0.00 0.00 70 1020.7
20260503005217 21 102 1.6 9.7 0.00 0.00 0.00 69 1020.7
20260503004718 21 72 1.6 9.7 0.00 0.00 0.00 70 1020.6
20260503004214 21 103 1.6 9.7 0.00 0.00 0.00 68 1020.6
20260503003713 21 76 1.6 4.8 0.00 0.00 0.00 69 1020.6
20260503003214 20 342 1.6 6.4 0.00 0.00 0.00 69 1020.7
20260503002713 20 38 1.6 6.4 0.00 0.00 0.00 69 1020.7
20260503002211 20 78 1.6 3.2 0.00 0.00 0.00 69 1020.5
20260503001712 20 96 1.6 6.4 0.00 0.00 0.00 70 1020.6
20260503001208 20 96 1.6 8.0 0.00 0.00 0.00 69 1020.5
20260503000706 20 36 1.6 8.0 0.00 0.00 0.00 70 1020.5
20260503000208 20 0 1.6 6.4 0.00 0.00 0.00 68 1020.4
20260502235707 20 355 1.6 6.4 0.00 0.00 0.00 69 1020.4
20260502235205 20 65 3.2 6.4 0.00 0.00 0.00 71 1020.5
20260502234706 20 90 3.2 9.7 0.00 0.00 0.00 71 1020.5
20260502234159 20 273 4.8 9.7 0.00 0.00 0.00 70 1020.5
20260502233659 20 0 4.8 19.3 0.00 0.00 0.00 71 1020.7
20260502233200 20 350 4.8 19.3 0.00 0.00 0.00 70 1020.7
20260502232659 20 59 4.8 12.9 0.00 0.00 0.00 71 1020.8
20260502232156 20 349 3.2 12.9 0.00 0.00 0.00 69 1020.9
20260502231656 20 0 3.2 8.0 0.00 0.00 0.00 71 1021.0
20260502231152 19 17 3.2 8.0 0.00 0.00 0.00 72 1021.1
20260502230651 19 342 3.2 8.0 0.00 0.00 0.00 71 1021.1
20260502230151 19 25 1.6 8.0 0.00 0.00 0.00 72 1021.3
20260502225651 18 72 3.2 8.0 0.00 0.00 0.00 74 1021.4
20260502225151 18 24 3.2 8.0 0.00 0.00 0.00 73 1021.4
20260502224652 18 332 3.2 8.0 0.00 0.00 0.00 75 1021.6
20260502224146 18 287 4.8 12.9 0.00 0.00 0.00 73 1021.5
20260502223645 18 30 4.8 12.9 0.00 0.00 0.00 73 1021.7
20260502223145 18 49 3.2 9.7 0.00 0.00 0.00 74 1021.8
20260502222645 18 250 3.2 6.4 0.00 0.00 0.00 73 1021.8
20260502222145 18 21 3.2 6.4 0.00 0.00 0.00 73 1021.9
20260502221646 18 54 3.2 16.1 0.00 0.00 0.00 74 1022.0
20260502221145 18 123 4.8 16.1 0.00 0.00 0.00 76 1021.9
20260502220638 18 105 3.2 11.3 0.00 0.00 0.00 74 1021.9
20260502220131 18 71 3.2 11.3 0.00 0.00 0.00 75 1022.0
20260502215628 18 51 3.2 11.3 0.00 0.00 0.00 74 1022.1
20260502215133 18 11 3.2 11.3 0.00 0.00 0.00 75 1022.1
20260502214630 18 14 3.2 11.3 0.00 0.00 0.00 73 1022.2
20260502214129 18 85 4.8 11.3 0.00 0.00 0.00 75 1022.3
20260502213628 18 86 4.8 11.3 0.00 0.00 0.00 75 1022.3
20260502213131 18 92 3.2 11.3 0.00 0.00 0.00 73 1022.2
20260502212623 18 115 3.2 9.7 0.00 0.00 0.00 72 1022.3
20260502212119 19 86 4.8 12.9 0.00 0.00 0.00 72 1022.3
20260502211618 19 349 4.8 14.5 0.00 0.00 0.00 72 1022.5
20260502211121 19 65 4.8 14.5 0.00 0.00 0.00 73 1022.6
20260502210618 18 13 4.8 12.9 0.00 0.00 0.00 74 1022.7
20260502210118 18 76 3.2 12.9 0.00 0.00 0.00 74 1022.7
20260502205621 18 17 4.8 12.9 0.00 0.00 0.00 74 1022.8
20260502205115 18 279 4.8 12.9 0.00 0.00 0.00 73 1022.9
20260502204615 18 263 3.2 11.3 0.00 0.00 0.00 72 1022.9
20260502204115 17 279 3.2 11.3 0.00 0.00 0.00 74 1022.8
20260502203614 17 293 3.2 11.3 0.00 0.00 0.00 73 1023.0
20260502203114 17 51 4.8 14.5 0.00 0.00 0.00 75 1023.0
20260502202616 17 355 4.8 14.5 0.00 0.00 0.00 73 1023.2
20260502202110 17 83 4.8 14.5 0.00 0.00 0.00 75 1023.2
20260502201611 16 11 6.4 14.5 0.00 0.00 0.00 76 1023.2
20260502201111 16 330 4.8 12.9 0.00 0.00 0.00 77 1023.2
20260502200610 16 309 3.2 14.5 0.00 0.00 0.00 76 1023.4
20260502200111 16 53 3.2 14.5 0.00 0.00 0.00 76 1023.4
20260502195612 16 5 4.8 11.3 0.00 0.00 0.00 75 1023.5
20260502195112 16 319 3.2 11.3 0.00 0.00 0.00 75 1023.7
20260502194610 16 355 3.2 12.9 0.00 0.00 0.00 75 1023.7
20260502194108 16 174 3.2 12.9 0.00 0.00 0.00 75 1023.9
20260502193609 16 76 4.8 14.5 0.00 0.00 0.00 77 1023.8
20260502193107 16 288 4.8 14.5 0.00 0.00 0.00 76 1023.8
20260502192606 15 80 4.8 12.9 0.00 0.00 0.00 78 1023.8
20260502192108 15 338 3.2 8.0 0.00 0.00 0.00 77 1023.8
20260502191603 15 26 4.8 14.5 0.00 0.00 0.00 77 1024.0
20260502191102 15 0 3.2 14.5 0.00 0.00 0.00 78 1023.8
20260502190603 15 26 3.2 11.3 0.00 0.00 0.00 78 1024.0
20260502190058 15 113 3.2 8.0 0.00 0.00 0.00 78 1024.0
20260502185558 15 74 3.2 8.0 0.00 0.00 0.00 80 1024.0
20260502185100 15 78 3.2 11.3 0.00 0.00 0.00 81 1024.2
20260502184558 15 65 3.2 11.3 0.00 0.00 0.00 83 1024.2
20260502184056 14 112 3.2 9.7 0.00 0.00 0.00 86 1024.4
20260502183556 13 75 4.8 11.3 0.00 0.00 0.00 85 1024.4
20260502183052 13 350 3.2 11.3 0.00 0.00 0.00 82 1024.6
20260502182552 13 16 3.2 8.0 0.00 0.00 0.00 82 1024.5
20260502182050 13 113 3.2 16.1 0.00 0.00 0.00 84 1024.6
20260502181550 13 66 3.2 16.1 0.00 0.00 0.00 86 1024.4
20260502181050 13 355 4.8 12.9 0.00 0.00 0.00 86 1024.3
20260502180551 13 71 3.2 12.9 0.00 0.00 0.00 86 1024.2
20260502164032 12 292 1.6 9.7 0.00 0.00 0.00 84 1024.8
20260502163533 12 51 4.8 9.7 0.00 0.00 0.00 83 1025.0
20260502163028 12 275 3.2 9.7 0.00 0.00 0.00 84 1024.9
20260502162527 12 252 1.6 9.7 0.00 0.00 0.00 84 1024.8
20260502162029 12 305 3.2 9.7 0.00 0.00 0.00 85 1024.7
20260502161529 11 10 4.8 9.7 0.00 0.00 0.00 85 1025.0
20260502161026 11 280 3.2 6.4 0.00 0.00 0.00 84 1024.9
20260502160527 11 271 3.2 6.4 0.00 0.00 0.00 85 1024.9
20260502152014 10 343 1.6 6.4 0.00 0.00 0.00 88 1024.4
20260502151513 10 288 1.6 4.8 0.00 0.00 0.00 88 1024.6
20260502151014 10 294 1.6 4.8 0.00 0.00 0.00 88 1024.5
20260502150515 10 331 1.6 6.4 0.00 0.00 0.00 87 1024.5
20260502130451 10 285 3.2 6.4 0.00 0.00 0.00 87 1024.6
20260502123445 10 0 3.2 8.0 0.00 0.00 0.00 87 1024.5
20260502122941 10 336 1.6 6.4 0.00 0.00 0.00 88 1024.7
20260502122441 10 336 1.6 4.8 0.00 0.00 0.00 88 1024.5
20260502121943 10 297 1.6 4.8 0.00 0.00 0.00 88 1024.7
20260502121439 10 319 3.2 6.4 0.00 0.00 0.00 88 1024.6
20260502120938 10 278 3.2 6.4 0.00 0.00 0.00 88 1024.6
20260502120439 10 289 3.2 9.7 0.00 0.00 0.00 88 1024.7
20260502115435 10 277 3.2 9.7 0.00 0.00 0.00 88 1024.6
20260502114937 10 266 1.6 6.4 0.00 0.00 0.00 88 1024.6
20260502114436 10 277 1.6 4.8 0.00 0.00 0.00 88 1024.7
20260502113936 10 278 3.2 8.0 0.00 0.00 0.00 89 1024.7
20260502113437 10 355 1.6 8.0 0.00 0.00 0.00 89 1024.6
20260502112935 10 305 1.6 6.4 0.00 0.00 0.00 89 1024.6
20260502112435 10 298 1.6 4.8 0.00 0.00 0.00 89 1024.6
20260502111937 10 284 1.6 3.2 0.00 0.00 0.00 89 1024.6
20260502111431 10 279 1.6 4.8 0.00 0.00 0.00 88 1024.7
20260502110932 10 279 1.6 4.8 0.00 0.00 0.00 89 1024.8
20260502110433 10 300 1.6 4.8 0.00 0.00 0.00 88 1024.7
20260502105931 10 12 1.6 6.4 0.00 0.00 0.00 88 1024.6
20260502105431 10 12 1.6 6.4 0.00 0.00 0.00 88 1024.4
20260502104932 10 34 1.6 6.4 0.00 0.00 0.00 88 1024.5
20260502104428 10 344 1.6 4.8 0.00 0.00 0.00 88 1024.6
20260502103928 10 309 3.2 6.4 0.00 0.00 0.00 88 1024.8
20260502103429 10 307 3.2 6.4 0.00 0.00 0.00 88 1024.6
20260502102928 10 5 3.2 8.0 0.00 0.00 0.00 88 1024.5
20260502102427 10 345 3.2 8.0 0.00 0.00 0.00 88 1024.5
20260502101929 10 355 3.2 8.0 0.00 0.00 0.00 88 1024.5
20260502101428 10 292 1.6 4.8 0.00 0.00 0.00 87 1024.5
20260502100927 10 323 3.2 9.7 0.00 0.00 0.00 87 1024.5
20260502100427 10 315 3.2 11.3 0.00 0.00 0.00 87 1024.5
20260502091427 11 276 4.8 9.7 0.00 0.00 0.00 85 1024.7
20260502090923 11 302 3.2 9.7 0.00 0.00 0.00 84 1024.7
20260502090421 11 274 3.2 8.0 0.00 0.00 0.00 84 1024.8
20260502071351 12 304 1.6 4.8 0.00 0.00 0.00 83 1025.9
20260502070851 12 304 1.6 4.8 0.00 0.00 0.00 83 1025.8
20260502070352 12 308 1.6 6.4 0.00 0.00 0.00 83 1025.7
20260502065850 12 319 1.6 6.4 0.00 0.00 0.00 83 1025.6
20260502065347 12 333 1.6 4.8 0.00 0.00 0.00 83 1025.5
20260502064849 12 274 1.6 4.8 0.00 0.00 0.00 83 1025.5
20260502064345 12 337 1.6 6.4 0.00 0.00 0.00 83 1025.7
20260502063843 12 273 1.6 6.4 0.00 0.00 0.00 83 1025.6
20260502063344 12 333 1.6 6.4 0.00 0.00 0.00 83 1025.5
20260502062838 12 298 1.6 9.7 0.00 0.00 0.00 83 1025.5
20260502062338 12 261 1.6 9.7 0.00 0.00 0.00 83 1025.6
20260502061837 12 288 3.2 9.7 0.00 0.00 0.00 83 1025.6
20260502061337 12 298 3.2 9.7 0.00 0.00 0.00 83 1025.6
20260502060838 12 284 3.2 8.0 0.00 0.00 0.00 83 1025.6
20260502060338 12 320 1.6 6.4 0.00 0.00 0.00 83 1025.5
20260502055833 12 281 0.0 3.2 0.00 0.00 0.00 83 1025.5
20260502055331 12 282 0.0 3.2 0.00 0.00 0.00 83 1025.6
20260502054832 12 281 1.6 3.2 0.00 0.00 0.00 83 1025.4
20260502054331 12 281 1.6 3.2 0.00 0.00 0.00 83 1025.3
20260502053831 12 281 1.6 3.2 0.00 0.00 0.00 83 1025.4
20260502053332 12 281 1.6 6.4 0.00 0.00 0.00 83 1025.3
20260502052827 12 0 1.6 6.4 0.00 0.00 0.00 82 1025.3
20260502052327 12 289 3.2 6.4 0.00 0.00 0.00 83 1025.1
20260502051829 13 273 1.6 6.4 0.00 0.00 0.00 82 1025.1
20260502051328 13 319 3.2 4.8 0.00 0.00 0.00 82 1025.1
20260502050825 13 272 1.6 4.8 0.00 0.00 0.00 82 1025.1
20260502050325 13 350 0.0 4.8 0.00 0.00 0.00 82 1025.0
20260502045822 13 304 0.0 3.2 0.00 0.00 0.00 82 1025.0
20260502045321 13 284 1.6 4.8 0.00 0.00 0.00 82 1024.9
20260502044822 13 283 1.6 4.8 0.00 0.00 0.00 82 1024.9
20260502044321 13 288 3.2 9.7 0.00 0.00 0.00 81 1024.9
20260502043819 13 264 3.2 9.7 0.00 0.00 0.00 81 1024.9
20260502043320 13 281 3.2 12.9 0.00 0.00 0.00 81 1024.9
20260502042815 13 273 4.8 12.9 0.00 0.00 0.00 81 1024.8
20260502042312 13 267 3.2 11.3 0.00 0.00 0.00 81 1024.8
20260502041813 13 284 3.2 9.7 0.00 0.00 0.00 81 1024.6
20260502041313 13 251 4.8 11.3 0.00 0.00 0.00 81 1024.6
20260502040813 13 299 4.8 11.3 0.00 0.00 0.00 81 1024.6
20260502040314 13 249 4.8 11.3 0.00 0.00 0.00 81 1024.5
20260502035808 13 287 6.4 12.9 0.00 0.00 0.00 81 1024.4
20260502035307 13 267 6.4 14.5 0.00 0.00 0.00 81 1024.3
20260502034807 13 296 6.4 14.5 0.00 0.00 0.00 81 1024.3
20260502034307 13 282 4.8 14.5 0.00 0.00 0.00 81 1024.2
20260502033807 13 265 6.4 14.5 0.00 0.00 0.00 81 1024.2
20260502033308 13 239 6.4 14.5 0.00 0.00 0.00 80 1024.2
20260502032802 13 257 6.4 19.3 0.00 0.00 0.00 80 1024.1
20260502032301 13 258 6.4 19.3 0.00 0.00 0.00 79 1024.0
20260502031800 14 234 6.4 17.7 0.00 0.00 0.00 79 1023.9
20260502031301 14 0 6.4 14.5 0.00 0.00 0.00 78 1023.9
20260502030801 14 0 6.4 16.1 0.00 0.00 0.00 77 1023.9
20260502030301 15 296 6.4 16.1 0.00 0.00 0.00 77 1023.8
20260502025758 15 299 4.8 16.1 0.00 0.00 0.00 76 1023.7
20260502025257 15 326 4.8 12.9 0.00 0.00 0.00 76 1023.6
20260502024755 15 267 4.8 14.5 0.00 0.00 0.00 75 1023.6
20260502024255 15 291 4.8 14.5 0.00 0.00 0.00 75 1023.5
20260502023755 16 269 4.8 12.9 0.00 0.00 0.00 74 1023.5
20260502023301 16 304 4.8 11.3 0.00 0.00 0.00 74 1023.4
20260502022753 16 272 3.2 11.3 0.00 0.00 0.00 74 1023.6
20260502022250 16 268 4.8 17.7 0.00 0.00 0.00 73 1023.5
20260502021749 16 0 6.4 17.7 0.00 0.00 0.00 73 1023.4
20260502021249 16 355 4.8 12.9 0.00 0.00 0.00 73 1023.4
20260502020749 16 270 3.2 11.3 0.00 0.00 0.00 72 1023.3
20260502020250 16 254 4.8 14.5 0.00 0.00 0.00 73 1023.3
20260502015744 17 225 6.4 14.5 0.00 0.00 0.00 72 1023.3
20260502015243 17 243 6.4 19.3 0.00 0.00 0.00 71 1023.3
20260502014743 17 203 8.0 19.3 0.00 0.00 0.00 70 1023.2
20260502014243 18 229 6.4 19.3 0.00 0.00 0.00 70 1023.2
20260502013743 18 0 4.8 19.3 0.00 0.00 0.00 69 1023.1
20260502013242 18 273 6.4 12.9 0.00 0.00 0.00 69 1023.2
20260502012736 18 43 4.8 12.9 0.00 0.00 0.00 68 1023.1
20260502012237 19 310 6.4 14.5 0.00 0.00 0.00 68 1023.2
20260502011737 19 263 6.4 17.7 0.00 0.00 0.00 67 1023.3
20260502011236 19 284 6.4 17.7 0.00 0.00 0.00 67 1023.3